Temperature
21 21 21 20 20 20 20 19 19 19 19 19 18 18 18 18 18 18 18 18 18 18 18 18 18 18 18 18 17 17 17 17 17 17 17 17 17 17 17 17 17 17 17
21 21 21 21 20 20 20 20 19 19 19 19 19 18 18 18 18 18 18 18 18 18 18 18 18 18 17 17 17 17 17 17 17 17 17 17 17 17 17 17 17 17 17
22 22 21 21 21 20 20 20 20 19 19 19 18 18 18 18 18 18 18 18 18 17 17 17 17 17 17 17 17 17 17 17 17 17 17 16 16 17 17 17 17 17 17
22 22 22 21 21 21 20 20 20 19 19 19 19 18 18 18 18 18 18 18 17 17 17 17 17 17 17 17 17 17 17 17 17 17 17 16 16 16 16 16 17 17 17
22 22 22 22 21 21 20 20 20 19 19 19 19 18 18 18 18 18 18 18 17 17 17 17 17 17 17 17 17 17 17 17 17 17 16 16 16 16 16 16 16 16 16
22 22 22 22 21 21 20 20 20 20 19 19 19 19 18 18 18 18 18 18 17 17 17 17 17 17 17 17 17 17 17 17 17 16 16 16 16 16 16 16 16 16 16
22 22 22 21 21 21 20 20 20 20 19 19 19 19 19 18 18 18 18 18 18 17 17 17 17 17 17 17 17 17 17 17 17 16 16 16 16 16 16 16 16 15 16
22 22 22 22 21 21 21 20 20 20 20 19 19 19 18 18 18 18 18 18 18 17 17 17 17 17 17 17 17 17 16 16 16 16 16 16 16 16 16 16 15 15 15
22 22 22 22 21 21 21 20 20 20 19 19 19 19 18 18 18 18 17 17 17 17 17 17 17 17 17 16 16 16 16 16 16 16 16 16 16 16 16 16 15 15 15
21 22 22 22 21 21 21 20 20 20 20 19 19 19 18 18 18 17 17 17 17 17 17 17 17 17 16 16 16 16 16 16 16 16 16 16 16 16 16 15 15 15 15
21 22 22 22 21 21 21 20 20 20 20 19 19 19 18 18 18 17 17 17 17 17 17 17 16 16 16 16 16 16 16 16 16 16 16 15 15 15 15 15 15 15 15
22 22 22 21 21 21 21 20 20 20 19 19 19 19 18 18 18 17 17 17 17 17 17 16 16 16 16 16 16 16 16 16 16 15 15 15 15 15 15 15 15 15 14
21 21 21 21 21 21 21 20 20 20 19 19 19 18 18 18 18 17 17 17 17 17 16 16 16 16 16 16 16 15 15 15 15 15 15 15 15 15 15 14 14 14 14
21 21 21 21 21 21 21 21 20 20 19 19 19 18 18 18 17 17 17 17 16 16 16 16 16 16 16 15 15 15 15 15 15 15 15 15 14 14 14 14 14 14 14
20 21 21 21 21 21 21 21 20 20 19 19 19 18 18 17 17 17 17 16 16 16 16 16 16 15 15 15 15 15 15 15 15 15 14 14 14 14 14 14 14 13 13
21 21 21 21 21 21 21 20 20 20 19 19 19 18 18 17 17 17 17 16 16 16 16 15 15 15 15 15 15 15 14 14 14 14 14 14 14 13 13 13 13 13 13
21 21 21 21 21 21 21 20 20 20 19 19 18 18 17 17 17 17 17 16 16 16 15 15 15 15 15 14 14 14 14 14 14 14 14 14 13 13 13 13 13 13 12
20 21 21 21 21 21 20 20 20 19 19 19 18 18 17 17 17 17 16 16 16 15 15 15 15 15 14 14 14 14 14 14 14 13 13 13 13 13 13 13 12 12 12
20 20 21 21 21 20 20 20 20 19 19 18 18 18 17 17 17 16 16 16 15 15 15 15 15 14 14 14 14 14 14 14 13 13 13 13 13 12 12 12 12 12 12
20 20 20 20 20 20 20 20 19 19 19 18 18 18 17 17 16 16 16 15 15 15 14 14 14 14 14 14 14 14 13 13 13 13 13 12 12 12 12 12 12 12 11
20 20 20 20 19 19 19 19 19 19 18 18 17 17 17 16 16 16 15 15 15 14 14 14 14 14 14 13 13 13 13 13 13 12 12 12 12 12 12 11 11 11 11
19 19 19 19 19 19 19 19 18 18 18 17 17 17 16 16 16 15 15 14 14 14 14 14 14 14 13 13 13 13 13 12 12 12 12 12 11 11 11 11 11 11 11
19 19 19 19 19 18 18 18 18 18 17 17 17 16 16 16 16 15 15 14 14 14 14 13 13 13 13 13 13 13 12 12 12 12 11 11 11 11 11 11 11 11 10
18 18 18 18 18 18 18 18 18 17 17 17 16 16 16 16 15 15 14 14 14 14 13 13 13 13 13 13 13 12 12 12 12 11 11 11 11 11 11 10 10 10 10
18 18 18 18 18 18 17 18 17 17 17 16 16 16 15 15 15 14 14 14 14 14 13 13 13 13 13 13 12 12 12 12 12 11 11 11 11 10 10 10 10 10 10
17 18 18 18 18 17 17 17 17 17 16 16 16 15 15 15 14 14 14 14 14 13 13 13 13 13 13 12 12 12 12 11 11 11 11 11 10 10 10 10 10 10 10
Wind_Speed
6 5 5 5 5 4 4 3 3 3 3 2 2 2 1 0 0 1 1 1 2 2 2 1 1 2 2 2 2 2 1 1 1 1 1 2 1 1 1 1 2 2 3
5 6 6 6 5 5 5 4 4 3 3 2 2 2 1 1 0 1 0 1 1 2 2 2 2 2 2 2 2 2 1 1 1 1 1 1 2 1 1 1 2 2 1
9 8 7 7 6 6 6 5 4 4 3 3 2 2 2 2 1 1 1 1 1 2 2 2 2 2 2 3 3 3 3 2 1 1 2 2 2 1 1 1 1 1 1
8 7 7 7 8 7 5 4 4 4 4 4 3 3 2 1 1 1 1 1 1 1 1 2 2 2 2 3 3 3 3 3 2 1 2 2 2 2 1 1 1 1 2
10 9 9 8 7 6 5 5 4 4 4 4 4 4 2 2 1 0 0 1 1 1 1 2 2 2 2 3 3 2 3 3 3 2 2 2 1 2 2 2 2 1 2
10 8 7 5 5 5 5 5 5 4 4 4 4 4 4 3 2 1 1 1 1 1 1 1 1 2 2 3 3 3 4 3 3 2 2 2 2 3 3 3 3 2 2
8 7 7 7 7 6 6 5 6 4 4 4 4 4 4 4 4 3 3 2 1 1 2 1 1 1 2 2 2 2 3 3 3 3 3 3 3 2 3 2 2 2 1
8 8 9 8 8 8 7 7 6 5 4 4 4 3 3 3 2 3 3 2 2 2 2 1 1 2 2 2 1 1 2 2 3 3 3 2 3 3 3 3 2 1 1
8 8 8 8 8 8 8 8 7 5 4 4 3 2 3 3 3 2 1 1 1 1 1 1 1 1 1 1 1 1 1 1 2 2 2 2 2 2 2 2 3 3 2
7 7 7 8 7 7 6 6 7 6 5 4 3 3 3 3 2 2 1 1 1 0 1 0 0 0 0 1 1 0 0 0 0 0 1 1 1 1 1 2 2 2 3
8 7 6 6 6 6 6 6 6 5 4 4 3 2 2 2 2 2 1 1 1 1 0 0 1 0 0 0 1 1 1 1 0 0 1 0 1 1 1 1 1 2 2
7 6 6 6 5 6 6 6 5 5 4 3 3 3 2 2 2 1 1 1 1 1 1 1 1 0 0 1 1 1 1 1 0 0 0 0 1 1 1 1 1 1 2
6 5 5 6 6 6 6 6 6 5 4 4 4 3 2 2 2 1 1 1 1 1 1 1 1 1 1 1 1 1 1 1 1 1 1 1 1 1 1 1 1 1 2
7 7 6 5 5 6 7 7 6 5 5 4 4 3 2 2 2 1 1 1 1 1 1 1 1 1 1 1 1 1 1 1 1 1 2 1 1 1 1 1 1 2 2
7 7 7 6 5 5 6 6 6 5 5 5 5 4 3 2 2 2 2 2 2 2 1 2 1 1 0 1 1 1 1 1 2 2 2 2 2 2 2 2 2 2 2
6 7 7 7 6 6 6 6 6 6 6 6 5 3 3 3 3 2 2 2 2 2 2 2 1 1 1 1 3 3 2 1 2 1 2 2 3 3 4 4 3 3 3
6 6 6 6 6 6 7 7 7 6 6 5 5 4 4 3 3 3 3 2 2 2 2 2 2 1 1 1 3 4 3 2 2 1 2 2 3 3 3 4 5 4 3
4 5 5 5 5 6 6 5 6 6 6 5 5 4 5 4 4 3 3 2 1 2 1 1 1 1 1 1 3 4 3 3 2 2 2 2 2 2 3 4 4 3 3
4 4 4 4 5 6 7 7 6 6 6 6 5 5 5 5 4 4 3 2 2 1 1 1 1 0 1 0 3 4 3 2 2 1 2 2 1 2 4 4 3 2 2
2 2 3 4 5 5 7 7 7 6 7 7 6 6 5 5 5 4 3 2 2 2 2 1 0 0 1 0 3 4 3 3 2 1 1 1 2 2 4 3 3 2 1
3 3 4 4 3 4 6 6 6 6 5 4 4 4 4 4 4 4 3 3 3 3 2 1 0 0 1 1 2 4 3 3 2 1 0 0 1 3 4 3 2 2 2
3 3 4 3 3 4 6 5 5 4 3 4 4 5 5 5 4 5 4 4 4 3 3 2 1 1 1 2 2 3 4 4 3 2 2 1 2 3 3 2 2 3 3
3 3 3 3 2 3 5 5 4 4 5 4 4 5 5 4 4 5 5 4 4 4 3 3 3 2 2 1 2 2 3 4 3 2 3 3 3 3 2 2 2 3 2
2 3 3 3 2 2 3 4 4 4 5 4 4 4 4 4 3 3 4 4 5 5 4 4 4 3 2 2 2 2 2 3 2 2 2 3 3 2 2 1 1 1 1
3 3 4 4 4 3 3 3 4 5 5 4 4 3 3 4 3 3 3 4 4 5 6 6 5 5 5 5 6 5 3 3 4 3 2 2 2 1 1 1 1 1 1
4 4 4 5 5 4 4 4 4 6 6 4 4 3 3 3 3 3 2 1 3 5 7 7 7 6 6 5 6 7 6 5 6 5 3 3 3 3 3 2 1 1 1
Wind_Direction
203 182 182 176 165 158 160 165 156 147 127 111 118 122 164 236 310 261 218 199 194 173 157 181 183 169 175 190 173 158 138 109 107 84 12 355 353 282 262 248 245 247 241
191 185 181 176 178 179 179 173 171 158 152 148 145 145 140 151 209 295 6 223 200 183 176 172 187 186 179 176 174 158 144 159 139 135 100 335 335 323 279 243 235 247 240
199 193 186 187 185 190 189 186 177 165 163 155 116 91 73 52 45 5 340 296 231 212 194 191 188 192 187 202 206 185 176 189 198 168 158 173 240 296 327 295 243 231 233
198 194 194 194 196 200 187 172 166 160 158 148 146 149 152 179 223 235 269 317 311 239 222 212 196 194 198 213 221 202 195 182 203 210 212 199 175 196 281 315 289 245 241
193 195 198 198 195 185 175 166 155 156 155 155 163 156 162 179 169 131 2 308 308 285 252 214 202 202 211 223 224 205 198 195 198 199 196 210 208 202 201 260 288 282 260
189 192 188 175 173 166 165 160 158 167 166 161 164 169 176 176 166 182 217 259 276 287 275 220 209 212 218 226 225 216 208 208 210 206 193 188 194 204 199 224 249 262 272
176 174 170 169 172 170 170 165 165 176 178 170 174 183 186 184 190 202 209 213 234 259 268 239 219 225 225 225 219 212 218 210 207 211 215 213 219 199 189 199 230 253 284
174 176 177 175 178 179 175 169 171 181 186 186 190 187 184 183 197 207 205 205 218 233 236 215 220 230 227 224 200 206 220 205 205 216 213 215 225 211 203 195 189 229 275
173 175 177 178 179 180 182 176 174 180 195 197 187 191 183 177 187 195 194 206 228 239 198 187 223 249 231 211 184 210 230 206 208 219 211 211 226 214 212 201 193 194 232
169 173 178 181 182 182 180 175 175 184 189 189 190 193 186 181 173 160 167 186 206 138 121 115 107 27 293 197 169 198 262 184 268 207 176 192 211 200 182 186 195 199 202
177 178 179 181 178 173 176 179 179 179 181 181 179 168 166 165 151 158 182 191 188 134 149 156 101 73 329 121 134 135 116 132 52 43 131 199 159 153 154 154 156 166 169
172 173 166 163 170 181 181 177 178 176 178 171 161 160 151 144 151 174 197 172 123 87 122 128 129 172 148 124 142 145 132 146 109 20 80 3 101 99 110 133 139 159 171
152 154 156 164 176 179 175 175 174 171 167 157 153 147 143 144 154 168 145 114 99 77 75 105 134 148 145 132 131 136 133 126 100 73 76 45 82 87 86 109 124 134 127
158 163 169 175 182 179 178 178 179 168 158 146 140 139 147 146 150 138 107 87 92 92 84 80 100 118 124 125 128 121 112 94 82 73 69 56 93 141 141 129 126 121 111
164 171 178 183 183 185 180 177 174 165 159 151 151 160 152 147 141 134 117 100 93 99 102 90 70 53 88 137 138 136 122 106 86 64 51 53 69 84 106 120 130 131 126
186 183 185 186 186 187 188 182 173 167 158 158 167 166 155 154 150 145 121 104 89 83 82 77 75 52 25 85 117 129 125 110 98 74 47 48 51 65 76 86 98 117 138
200 192 194 196 196 193 190 183 173 160 158 166 166 163 161 165 167 157 128 125 116 96 84 70 69 59 16 108 123 121 125 114 102 94 70 61 53 65 79 80 78 70 79
197 197 195 200 193 179 171 164 154 156 164 170 172 172 172 177 170 153 150 148 123 118 108 93 83 44 343 143 141 128 119 104 91 91 99 99 66 70 97 93 79 62 48
209 207 196 176 160 159 160 153 153 158 168 180 185 190 184 177 171 170 173 165 143 137 143 139 143 130 316 155 147 139 126 110 92 81 91 114 109 85 110 109 101 74 35
165 153 132 128 140 154 154 154 164 173 187 192 191 187 181 177 180 181 178 164 157 175 172 159 170 251 299 279 148 146 140 131 119 82 61 80 119 116 129 132 130 119 353
127 119 117 126 150 150 148 161 173 192 201 188 174 166 171 177 179 169 167 162 166 167 176 188 220 254 268 276 167 157 164 165 155 154 154 300 113 116 130 139 152 182 173
108 116 120 125 135 141 147 160 183 187 164 171 172 174 177 185 182 168 173 172 175 185 198 205 238 267 267 245 221 182 185 176 169 189 203 194 153 130 127 141 144 132 124
137 140 143 143 144 149 153 169 189 161 155 164 181 184 185 187 177 178 180 183 190 201 214 215 231 252 264 258 245 203 191 181 176 186 179 166 152 137 118 105 118 124 119
177 167 156 166 193 193 182 187 174 155 154 170 183 182 180 183 181 186 190 195 204 210 216 220 228 235 239 236 229 218 197 182 165 154 137 127 118 113 103 94 99 115 144
208 193 192 197 208 208 209 189 168 160 166 173 182 187 186 182 187 193 209 216 223 216 214 223 220 216 230 234 212 197 197 194 183 157 130 120 124 137 128 124 117 129 145
210 206 205 207 210 200 209 205 183 174 172 176 182 186 189 186 193 197 214 234 226 228 223 221 216 227 222 211 201 200 195 182 166 155 169 179 182 193 198 200 194 190 201
Height
1521 1523 1525 1527 1528 1529 1531 1532 1533 1534 1535 1536 1537 1538 1538 1539 1539 1540 1541 1541 1541 1542 1542 1542 1542 1543 1543 1543 1544 1544 1545 1545 1546 1546 1546 1546 1546 1546 1547 1547 1547 1547 1548
1520 1522 1524 1525 1527 1528 1530 1531 1533 1534 1536 1537 1537 1538 1538 1539 1539 1539 1540 1540 1541 1541 1541 1541 1541 1542 1542 1542 1543 1543 1543 1544 1544 1545 1545 1545 1546 1544 1545 1545 1545 1546 1546
1517 1519 1522 1524 1526 1528 1529 1531 1532 1534 1535 1536 1537 1537 1538 1537 1538 1539 1539 1540 1540 1540 1541 1540 1540 1541 1541 1541 1541 1542 1542 1542 1543 1543 1544 1544 1543 1543 1543 1543 1543 1544 1544
1515 1518 1520 1522 1524 1526 1528 1530 1532 1533 1534 1535 1536 1536 1537 1537 1537 1537 1538 1539 1539 1539 1539 1539 1539 1539 1540 1540 1540 1540 1540 1541 1541 1541 1542 1542 1542 1542 1541 1542 1542 1542 1542
1512 1515 1518 1520 1523 1525 1527 1529 1530 1532 1533 1534 1535 1535 1536 1536 1536 1536 1537 1537 1538 1538 1538 1538 1538 1538 1538 1538 1538 1538 1538 1538 1539 1539 1539 1540 1540 1540 1539 1539 1539 1539 1539
1510 1513 1516 1519 1522 1524 1526 1528 1529 1530 1532 1533 1533 1534 1534 1535 1535 1535 1535 1536 1536 1536 1536 1536 1536 1536 1536 1536 1536 1536 1536 1536 1536 1536 1537 1537 1537 1537 1537 1536 1536 1536 1536
1507 1510 1513 1516 1519 1522 1524 1526 1528 1529 1530 1531 1532 1532 1533 1533 1533 1534 1534 1534 1534 1534 1535 1535 1535 1535 1535 1534 1534 1534 1534 1534 1533 1534 1534 1534 1534 1535 1535 1535 1534 1533 1533
1504 1507 1510 1513 1517 1520 1522 1524 1526 1528 1529 1530 1531 1531 1532 1532 1532 1533 1533 1533 1533 1533 1533 1533 1533 1533 1533 1533 1533 1532 1532 1532 1531 1531 1532 1531 1531 1532 1532 1532 1532 1531 1531
1502 1505 1508 1512 1515 1518 1520 1523 1524 1525 1527 1528 1529 1530 1530 1530 1531 1531 1531 1532 1532 1532 1532 1532 1532 1532 1531 1531 1531 1531 1530 1530 1530 1529 1529 1529 1529 1529 1529 1529 1529 1530 1529
1501 1504 1507 1510 1513 1516 1519 1521 1523 1524 1525 1526 1527 1528 1529 1529 1529 1530 1530 1530 1530 1530 1531 1531 1530 1530 1530 1530 1529 1529 1529 1529 1528 1528 1527 1527 1526 1526 1526 1526 1526 1527 1527
1499 1502 1506 1509 1512 1515 1517 1519 1521 1523 1524 1525 1526 1527 1527 1528 1528 1528 1528 1529 1529 1529 1529 1529 1529 1529 1529 1528 1528 1528 1527 1527 1526 1526 1525 1525 1525 1524 1524 1524 1524 1524 1524
1498 1502 1504 1507 1510 1513 1516 1518 1520 1521 1522 1523 1524 1525 1525 1526 1526 1527 1527 1527 1527 1527 1527 1527 1527 1527 1527 1527 1527 1526 1526 1525 1524 1524 1524 1523 1523 1522 1522 1522 1521 1521 1521
1498 1501 1504 1506 1509 1511 1514 1516 1518 1519 1520 1521 1522 1523 1524 1524 1525 1525 1526 1526 1526 1526 1526 1526 1526 1526 1526 1525 1525 1525 1524 1523 1523 1522 1522 1522 1521 1520 1520 1520 1519 1519 1519
1496 1499 1502 1505 1507 1509 1512 1514 1516 1517 1518 1519 1520 1521 1522 1523 1524 1525 1525 1525 1525 1525 1525 1525 1525 1524 1524 1524 1524 1523 1523 1522 1521 1521 1520 1520 1520 1519 1518 1518 1518 1518 1518
1495 1497 1500 1503 1505 1507 1509 1511 1514 1515 1516 1517 1518 1519 1520 1521 1522 1523 1523 1523 1523 1523 1524 1523 1523 1523 1523 1522 1522 1522 1521 1520 1520 1519 1519 1518 1518 1518 1517 1517 1516 1517 1516
1493 1496 1499 1501 1503 1505 1508 1509 1511 1513 1515 1516 1517 1518 1518 1519 1520 1521 1521 1521 1521 1521 1522 1522 1522 1521 1521 1521 1521 1520 1520 1519 1519 1518 1518 1518 1517 1517 1516 1516 1516 1516 1516
1492 1495 1497 1499 1501 1503 1505 1507 1508 1511 1512 1514 1515 1516 1517 1517 1519 1519 1519 1519 1520 1520 1520 1520 1520 1520 1520 1520 1519 1519 1518 1518 1517 1517 1517 1517 1516 1516 1516 1516 1515 1515 1515
1490 1492 1494 1496 1499 1501 1503 1505 1507 1509 1510 1511 1513 1514 1515 1515 1516 1517 1517 1517 1518 1518 1518 1518 1518 1518 1518 1518 1518 1518 1517 1516 1516 1516 1516 1516 1516 1516 1515 1515 1515 1514 1514
1489 1490 1492 1494 1496 1498 1500 1503 1504 1506 1508 1509 1511 1512 1512 1513 1514 1514 1514 1515 1516 1516 1516 1516 1516 1516 1516 1516 1516 1516 1515 1515 1515 1515 1515 1515 1515 1515 1515 1514 1514 1514 1514
1488 1489 1490 1492 1494 1496 1498 1499 1501 1503 1504 1506 1508 1509 1510 1511 1511 1512 1513 1514 1514 1515 1515 1514 1514 1514 1514 1514 1514 1514 1514 1513 1513 1513 1514 1514 1514 1514 1514 1513 1513 1513 1513
1487 1488 1489 1491 1492 1494 1496 1497 1499 1500 1502 1504 1505 1506 1507 1508 1509 1510 1511 1511 1512 1512 1512 1512 1512 1512 1512 1512 1513 1512 1512 1512 1512 1512 1512 1512 1513 1513 1512 1512 1512 1512 1512
1486 1487 1488 1489 1491 1492 1494 1495 1496 1498 1500 1501 1503 1504 1504 1505 1506 1507 1508 1509 1509 1510 1509 1509 1509 1509 1510 1510 1510 1510 1510 1510 1510 1510 1511 1511 1511 1511 1511 1511 1511 1511 1511
1485 1486 1487 1488 1489 1490 1491 1492 1494 1495 1496 1498 1500 1501 1502 1502 1503 1504 1504 1505 1506 1506 1506 1506 1507 1507 1507 1508 1508 1508 1508 1508 1508 1508 1508 1509 1509 1510 1509 1509 1509 1510 1510
1483 1484 1485 1486 1487 1488 1489 1490 1491 1493 1494 1495 1496 1497 1498 1499 1500 1500 1501 1502 1502 1503 1503 1503 1503 1504 1504 1505 1505 1505 1505 1505 1506 1506 1506 1506 1507 1507 1507 1507 1507 1507 1508
1480 1481 1482 1483 1484 1485 1486 1487 1488 1489 1491 1492 1494 1494 1495 1495 1496 1497 1498 1499 1499 1500 1500 1500 1500 1500 1500 1501 1502 1502 1502 1503 1503 1503 1504 1504 1504 1504 1505 1505 1505 1505 1506
1478 1478 1479 1480 1481 1481 1483 1485 1486 1486 1488 1489 1490 1491 1492 1492 1493 1493 1494 1494 1495 1496 1497 1497 1497 1497 1498 1498 1499 1499 1499 1500 1500 1501 1500 1500 1501 1502 1502 1503 1502 1503 1503